TimeMST,TemperatureF,Dew PointF,Humidity,Sea Level PressureIn,VisibilityMPH,Wind Direction,Wind SpeedMPH,Gust SpeedMPH,PrecipitationIn,Events,Conditions,WindDirDegrees,DateUTC
12:18 AM,28.4,26.6,93,29.56,4.0,ENE,11.5,-,N/A,,Overcast,70,2013-12-03 07:18:00
12:33 AM,28.4,26.6,93,29.57,1.0,ENE,10.4,-,N/A,Snow,Light Snow,70,2013-12-03 07:33:00
12:58 AM,27.5,26.1,94,29.58,1.0,ENE,9.2,-,0.01,Snow,Light Snow,70,2013-12-03 07:58:00
1:58 AM,25.5,23.7,93,29.65,1.0,ENE,10.4,-,0.00,Snow,Light Snow,60,2013-12-03 08:58:00
2:58 AM,23.0,21.2,93,29.66,1.0,NE,13.8,-,0.01,Snow,Light Snow,50,2013-12-03 09:58:00
3:58 AM,20.5,18.0,90,29.70,1.0,NE,10.4,-,0.00,Snow,Light Snow,40,2013-12-03 10:58:00
4:58 AM,19.9,17.2,89,29.72,3.0,NNE,9.2,-,0.00,Snow,Light Snow,30,2013-12-03 11:58:00
5:05 AM,19.4,17.6,93,29.62,3.0,NNE,9.2,-,N/A,Snow,Light Snow,30,2013-12-03 12:05:00
5:58 AM,19.4,17.6,93,29.74,1.0,NNE,10.4,-,0.00,Snow,Light Snow,20,2013-12-03 12:58:00
6:58 AM,19.2,16.7,90,29.78,1.0,North,13.8,-,0.00,Snow,Light Snow,360,2013-12-03 13:58:00
7:18 AM,19.4,17.6,93,29.70,3.0,North,16.1,-,N/A,Snow,Light Snow,360,2013-12-03 14:18:00
7:51 AM,17.6,15.8,93,29.72,10.0,North,13.8,-,N/A,,Overcast,360,2013-12-03 14:51:00
7:58 AM,18.5,16.0,90,29.84,10.0,North,12.7,-,0.00,,Overcast,350,2013-12-03 14:58:00
8:42 AM,19.4,15.8,86,29.74,2.0,North,12.7,-,N/A,Snow,Light Snow,350,2013-12-03 15:42:00
8:50 AM,19.4,15.8,86,29.71,2.0,North,15.0,-,N/A,Snow,Light Snow,360,2013-12-03 15:50:00
8:58 AM,18.7,16.2,90,29.85,2.0,North,12.7,-,0.00,Snow,Light Snow,360,2013-12-03 15:58:00
9:31 AM,17.6,15.8,93,29.74,10.0,North,16.1,-,N/A,,Overcast,350,2013-12-03 16:31:00
9:58 AM,17.6,15.8,93,29.88,5.0,North,17.3,-,N/A,Snow,Light Snow,10,2013-12-03 16:58:00
10:23 AM,17.6,14.0,86,29.79,10.0,North,13.8,-,N/A,Snow,Light Snow,360,2013-12-03 17:23:00
10:28 AM,17.6,14.0,86,29.78,4.0,North,12.7,20.7,N/A,Snow,Light Snow,10,2013-12-03 17:28:00
10:33 AM,17.6,14.0,86,29.77,4.0,North,13.8,20.7,N/A,Snow,Light Snow,350,2013-12-03 17:33:00
10:58 AM,17.8,15.1,89,29.90,4.0,North,17.3,-,0.00,Snow,Light Snow,360,2013-12-03 17:58:00
11:23 AM,17.6,14.0,86,29.77,5.0,North,15.0,-,N/A,Snow,Light Snow,10,2013-12-03 18:23:00
11:58 AM,17.2,14.2,88,29.91,3.0,North,17.3,-,0.00,Snow,Light Snow,360,2013-12-03 18:58:00
12:28 PM,17.6,14.0,86,29.77,4.0,North,18.4,-,N/A,Snow,Light Snow,360,2013-12-03 19:28:00
12:58 PM,16.2,12.6,86,29.93,5.0,North,17.3,-,0.00,Snow,Light Snow,10,2013-12-03 19:58:00
1:28 PM,15.8,12.2,86,29.78,3.0,North,15.0,-,N/A,Snow,Light Snow,360,2013-12-03 20:28:00
1:53 PM,15.8,12.2,86,29.77,7.0,North,16.1,-,N/A,Snow,Light Snow,10,2013-12-03 20:53:00
1:58 PM,15.4,11.5,84,29.90,7.0,North,17.3,-,0.00,Snow,Light Snow,10,2013-12-03 20:58:00
2:13 PM,15.8,10.4,79,29.73,10.0,NNE,15.0,-,N/A,Snow,Light Snow,20,2013-12-03 21:13:00
6:42 PM,10.4,6.8,85,29.85,10.0,North,16.1,-,N/A,,Overcast,360,2013-12-04 01:42:00
6:47 PM,10.4,6.8,85,29.85,10.0,North,17.3,-,N/A,,Overcast,360,2013-12-04 01:47:00
6:58 PM,10.6,6.4,83,30.01,10.0,North,17.3,25.3,0.00,,Overcast,360,2013-12-04 01:58:00
7:01 PM,10.4,6.8,85,29.84,10.0,North,19.6,26.5,N/A,Snow,Light Snow,350,2013-12-04 02:01:00
7:11 PM,10.4,6.8,85,29.84,4.0,North,20.7,26.5,N/A,Snow,Light Snow,350,2013-12-04 02:11:00
7:16 PM,10.4,6.8,85,29.85,2.0,North,20.7,27.6,N/A,Snow,Light Snow,360,2013-12-04 02:16:00
7:21 PM,10.4,6.8,85,29.85,1.5,North,19.6,27.6,N/A,Snow,Light Snow,350,2013-12-04 02:21:00
7:36 PM,10.4,6.8,85,29.84,0.8,North,20.7,26.5,N/A,Snow,Light Snow,350,2013-12-04 02:36:00
7:41 PM,10.4,6.8,85,29.83,0.8,North,23.0,26.5,N/A,Snow,Light Snow,350,2013-12-04 02:41:00
7:46 PM,10.4,6.8,85,29.84,1.5,North,20.7,31.1,N/A,Snow,Light Snow,350,2013-12-04 02:46:00
7:51 PM,10.4,6.8,85,29.85,1.8,North,20.7,31.1,N/A,Snow,Light Snow,360,2013-12-04 02:51:00
7:56 PM,10.4,6.8,85,29.86,2.0,North,18.4,-,N/A,Snow,Light Snow,350,2013-12-04 02:56:00
7:58 PM,11.1,7.3,85,29.86,2.0,North,18.4,-,0.00,Snow,Light Snow,350,2013-12-04 02:58:00
8:03 PM,10.4,6.8,85,29.85,2.5,North,20.7,26.5,N/A,Snow,Light Snow,360,2013-12-04 03:03:00
8:08 PM,10.4,6.8,85,29.85,2.0,North,20.7,27.6,N/A,Snow,Light Snow,360,2013-12-04 03:08:00
8:18 PM,10.4,6.8,85,29.86,2.5,North,19.6,23.0,N/A,Snow,Light Snow,360,2013-12-04 03:18:00
8:33 PM,12.2,8.6,85,29.86,3.0,North,16.1,23.0,N/A,Snow,Light Snow,350,2013-12-04 03:33:00
8:58 PM,12.0,7.9,83,30.04,3.0,North,19.6,32.2,0.00,Snow,Light Snow,350,2013-12-04 03:58:00
9:05 PM,12.2,8.6,85,29.86,3.0,North,20.7,-,N/A,Snow,Light Snow,350,2013-12-04 04:05:00
9:15 PM,12.2,6.8,79,29.84,2.5,North,20.7,29.9,N/A,Snow,Light Snow,350,2013-12-04 04:15:00
9:20 PM,12.2,6.8,79,29.85,2.0,North,23.0,29.9,N/A,Snow,Light Snow,350,2013-12-04 04:20:00
9:25 PM,12.2,6.8,79,29.85,1.8,North,23.0,29.9,N/A,Snow,Light Snow,350,2013-12-04 04:25:00
9:30 PM,12.2,6.8,79,29.85,1.5,North,21.9,31.1,N/A,Snow,Light Snow,350,2013-12-04 04:30:00
9:40 PM,10.4,6.8,85,29.85,1.8,North,21.9,28.8,N/A,Snow,Light Snow,350,2013-12-04 04:40:00
9:55 PM,10.4,6.8,85,29.84,1.2,North,20.7,29.9,N/A,Snow,Light Snow,350,2013-12-04 04:55:00
9:58 PM,10.8,6.8,84,30.02,1.2,North,21.9,31.1,0.00,Snow,Light Snow,350,2013-12-04 04:58:00
10:03 PM,10.4,6.8,85,29.84,1.0,North,23.0,31.1,N/A,Snow,Light Snow,350,2013-12-04 05:03:00
10:08 PM,10.4,6.8,85,29.85,1.2,NNW,20.7,29.9,N/A,Snow,Light Snow,340,2013-12-04 05:08:00
10:13 PM,10.4,6.8,85,29.85,1.5,North,23.0,31.1,N/A,Snow,Light Snow,350,2013-12-04 05:13:00
10:23 PM,10.4,6.8,85,29.84,1.8,NNW,21.9,32.2,N/A,Snow,Light Snow,340,2013-12-04 05:23:00
10:28 PM,10.4,5.0,79,29.85,1.8,NNW,26.5,34.5,N/A,Snow,Light Snow,340,2013-12-04 05:28:00
10:43 PM,10.4,5.0,79,29.86,1.8,NNW,26.5,33.4,N/A,Snow,Light Snow,340,2013-12-04 05:43:00
10:58 PM,8.6,5.0,85,30.02,2.0,NNW,25.3,33.4,0.00,Snow,Light Snow,340,2013-12-04 05:58:00
11:03 PM,8.6,5.0,85,29.83,2.0,NNW,28.8,33.4,N/A,Snow,Light Snow,340,2013-12-04 06:03:00
11:08 PM,8.6,5.0,85,29.84,1.5,NNW,27.6,38.0,N/A,Snow,Light Snow,340,2013-12-04 06:08:00
11:43 PM,8.6,3.2,79,29.85,1.8,NNW,31.1,36.8,N/A,Snow,Light Snow,340,2013-12-04 06:43:00
11:44 PM,8.6,3.2,79,29.85,1.5,North,26.5,36.8,N/A,Snow,Light Snow,350,2013-12-04 06:44:00
11:49 PM,8.6,3.2,79,29.86,1.8,North,23.0,35.7,N/A,Snow,Light Snow,350,2013-12-04 06:49:00
11:58 PM,7.9,3.2,81,30.04,3.0,NNW,21.9,31.1,0.00,Snow,Light Snow,340,2013-12-04 06:58:00